Tracking 35237 objects as of 5-Sep-2026
HD Live streaming from Space Station
objects crossing your sky now

STARLINK-32704

Track STARLINK-32704 now!
10-day predictions
STARLINK-32704 is classified as:


NORAD ID: 62826
Int'l Code: 2025-018W
Launch date: January 24, 2025
Source: United States (US)
Launch site: AIR FORCE WESTERN TEST RANGE (AFWTR)
Your satellite tracking list
Your tracking list is empty




NASA's NSSDC Master Catalog

Two Line Element Set (TLE):
1 62826U 25018W   26247.55224500  .00060947  00000-0  90365-3 0  9996
2 62826  53.1481 186.5895 0005464  64.4645 295.6931 15.54669253 90727
Source of the keplerian elements: AFSPC